Regional Weather Roundup
Issued by NWS Albany, NY

Home | Current Version | Previous Version | Graphics & Text | Print | Product List | Glossary On
Versions: 1 2 3 4 5 6 7 8 9 10 11 12 13 14 15 16 17 18 19 20 21 22 23 24 25 26 27 28 29 30 31 32 33 34 35 36 37 38 39 40 41 42 43 44 45 46 47 48 49 50
000
ASUS41 KALY 210210
RWRALY

NEW YORK STATE HOURLY WEATHER ROUNDUP
NATIONAL WEATHER SERVICE ALBANY NY
1000 PM EDT WED AUG 20 2014

NOTE: "FAIR" INDICATES FEW OR NO CLOUDS BELOW 12,000 FEET WITH NO
SIGNIFICANT WEATHER AND/OR NO OBSTRUCTIONS TO VISIBILITY.

NYZ032-033-038>043-046>054-057>066-NYZ062>081-210300-
EAST


CITY           SKY/WX    TMP DP  RH WIND       PRES   REMARKS
ALBANY         CLOUDY    77  64  64 SE8       29.98R
GLENS FALLS    CLOUDY    73  65  75 CALM      29.98S
POUGHKEEPSIE   MOCLDY    75  61  61 S6        29.99S
NEWBURGH       PTCLDY    73  61  64 S9        30.02S
MONTGOMERY     MOCLDY    71  61  70 S3        30.00S
WHITE PLAINS   CLEAR     65  59  81 CALM      30.03S
ISLIP          PTCLDY    70  61  73 CALM      30.02R
NEW YORK CITY  PTCLDY    73  59  61 S9        30.01S
CENTRAL PARK   PTCLDY    73  58  59 VRB3      30.04S
$$

NYZ005>009-017-018-044>046-055-056-210300-
CENTRAL


CITY           SKY/WX    TMP DP  RH WIND       PRES   REMARKS
FULTON         MOCLDY    69  66  90 VRB3      29.95S FOG
SYRACUSE       CLOUDY    70  68  93 E9        29.95S
ROME           CLOUDY    68  68 100 E6        29.99F
ELMIRA         PTCLDY    69  69 100 CALM      29.96S FOG
BINGHAMTON     CLOUDY    67  66  97 E3        30.01R FOG
MONTICELLO     CLOUDY    72  64  78 S8        30.04S
$$

NYZ026>034-041>043-210300-
NORTH


CITY           SKY/WX    TMP DP  RH WIND       PRES   REMARKS
WATERTOWN      LGT RAIN  68  63  84 E6        29.96S
FORT DRUM      NOT AVBL
MASSENA        LGT RAIN  68  67  96 NW3       30.00R
SARANAC LAKE   CLOUDY    66  63  90 CALM      30.03R
PLATTSBURGH    MOCLDY    66  64  93 CALM      29.98R
$$

NYZ001>004-010>016-019>021-210300-
WEST


CITY           SKY/WX    TMP DP  RH WIND       PRES   REMARKS
NIAGARA FALLS  MOCLDY    71  65  81 S5        29.90R
BUFFALO        MOCLDY    72  65  78 S5        29.92R
DUNKIRK        MOCLDY    66  65  96 CALM      29.93R
JAMESTOWN      MOCLDY    64  63  94 CALM      29.99R
WELLSVILLE     MOCLDY    67  64  90 S5        30.01F
ROCHESTER      MOCLDY    69  66  90 SE3       29.93R
PENN YAN       FOG       65  64  97 CALM      29.96R VSB 1/2
$$

             KEY
       WCI = WIND CHILL INDEX
       VSB = VISIBILITY
       HX  = HEAT INDEX
$$



USA.gov is the U.S. government's official web portal to all federal, state and local government web resources and services.